Regional Weather Roundup
Issued by NWS Portland, ME

Current Version | Previous Version | Text Only | Print | Product List | Glossary Off
Versions: 1 2 3 4 5 6 7 8 9 10 11 12 13 14 15 16 17 18 19 20 21 22 23 24 25 26 27 28 29 30 31 32 33 34 35 36 37 38 39 40 41 42 43 44 45 46 47 48 49 50
000 ASUS41 KGYX 210310 RWRGYX WEATHER ROUNDUP FOR MAINE AND NEW HAMPSHIRE NATIONAL WEATHER SERVICE GRAY ME 1000 PM EST SAT DEC 20 2014 MEZ002-005-006-010-012-015-018-020-021-024-026-027-029-210400- MAINE CITY SKY/WX TMP DP RH WIND PRES REMARKS PORTLAND CLOUDY 23 19 85 N12 30.39R WCI 12 SANFORD MOCLDY 23 14 68 N9 30.35S BAR HARBOR CLOUDY 27 27 100 NW6 30.34F WISCASSET CLOUDY 23 17 78 VRB3 30.40S ROCKLAND CLOUDY 25 19 80 NW6 30.35S FRYEBURG CLEAR 13 10 88 CALM 30.35S LEWISTONAUBURN CLOUDY 21 16 79 NE7 30.36S AUGUSTA CLOUDY 20 16 84 NW7 30.37F WATERVILLE CLOUDY 21 16 79 N7 30.35S BANGOR CLOUDY 23 20 88 NW7 30.37S GREENVILLE N/A 16 13 88 CALM 30.27S MILLINOCKET CLOUDY 20 17 88 CALM 30.38S HOULTON CLOUDY 18 15 88 NE5 30.34F PRESQUE ISLE CLOUDY 18 3 53 CALM 30.35S FRENCHVILLE CLOUDY 13 11 92 CALM 30.32F CARIBOU CLOUDY 16 12 84 CALM 30.35S $$ NHZ002-005-008-009-011-012-014-210400- NEW HAMPSHIRE CITY SKY/WX TMP DP RH WIND PRES REMARKS PORTSMOUTH PTCLDY 29 23 79 NE10 30.31F WCI 20 ROCHESTER PTCLDY 26 21 81 NE5 30.32F NASHUA CLOUDY 32 24 72 CALM 30.32S MANCHESTER CLOUDY 31 22 69 N7 30.30S CONCORD CLOUDY 30 21 69 NE5 30.31F LACONIA PTCLDY 28 19 69 E7 30.29F PLYMOUTH CLOUDY 22 22 100 CALM 30.32S BERLIN FAIR 5 0 79 CALM 30.29R WHITEFIELD PTCLDY 11 6 81 CALM 30.28S JAFFREY CLOUDY 29 22 75 VRB3 30.26S KEENE CLOUDY 32 19 59 CALM 30.29R LEBANON CLOUDY 24 19 81 CALM 30.30S MT WASHINGTON MOCLDY 19 -13 23 E15 N/A WCI 5 $$ VTZ005-007-008-210400- VERMONT CITY SKY/WX TMP DP RH WIND PRES REMARKS ST JOHNSBURY N/A 15 12 88 MISG 30.30R MONTPELIER PTCLDY 13 10 88 CALM 30.31S BURLINGTON CLOUDY 17 13 84 E3 30.33S $$ MAZ007-012-024-CTZ003-RIZ002-NYZ038-NYZ072-210400- SOUTHERN NEW ENGLAND AND NY CITY SKY/WX TMP DP RH WIND PRES REMARKS BOSTON CLOUDY 35 28 75 NE10 30.29F WORCESTER CLOUDY 28 24 85 NE7 30.25S NANTUCKET CLOUDY 40 35 83 NE8 30.24R PROVIDENCE LGT SNOW 31 29 92 N9 30.28F FOG HARTFORD CLOUDY 33 25 72 N6 30.29R ALBANY CLOUDY 28 19 69 N3 30.32R NEW YORK CITY CLOUDY 33 23 66 N6 30.30R $$ ANZ081-ANZ082-ANZ150-NHZ014-MEZ023>029-210400- COASTAL MARINE OBSERVATIONS STATION/POSITION TIME TEMP WIND PRES WAVE AIR SEA DIR/SP/G HT/PER (UTC) (F) (DEG/KT/KT) (MB) (FT/S) MOUNT DESERT ROC 0300 33 1026.1S MATINICUS ROCK 0300 350/ 14/ 17 1026.7F PORTLAND WX BUOY 0250 27 43 30/ 12/ 16 1028.0S 2/ 5 WELLS 0200 27 39 10/ 6/ 7 1027.2R ISLE OF SHOALS 0300 35 20/ 17/ 20 1025.7F JEFFREYS LEDGE 0221 49 N/A 4/ 6 CASHES LEDGE BUO 0250 35 48 360/ 17/ 19 1025.9S 4/ 6 $$ .............KEY.............. WCI - WIND CHILL TC - TEMPERATURE IN CELSIUS VSB - VISIBILITY IN MILES HX - HEAT INDEX FAIR- INDICATES FEW OR NO CLOUDS BELOW 12,000 FT, WITH NO SIGNIFICANT WEATHER AND/OR OBSTRUCTIONS TO VISIBILITY.

USA.gov is the U.S. government's official web portal to all federal, state and local government web resources and services.